| time (UTC) | temp F | wind direction | speed MPH | gust MPH | rain 1hr in | rain 24hr in | rain mn in | humidity % | barometer mb |
| 20260510071019 | 52 | 174 | 1.0 | 6.0 | 0.00 | 0.36 | 0.00 | 94 | 1011.4 |
| 20260510070519 | 52 | 231 | 2.0 | 6.0 | 0.00 | 0.36 | 0.00 | 94 | 1011.3 |
| 20260510070040 | 52 | 233 | 1.0 | 6.0 | 0.00 | 0.36 | 0.00 | 94 | 1011.2 |
| 20260510065519 | 52 | 243 | 2.0 | 6.0 | 0.00 | 0.36 | 0.00 | 94 | 1011.1 |
| 20260510065022 | 52 | 0 | 0.0 | 5.0 | 0.00 | 0.36 | 0.00 | 94 | 1011.3 |
| 20260510064540 | 52 | 220 | 2.0 | 5.0 | 0.00 | 0.36 | 0.00 | 94 | 1011.2 |
| 20260510064018 | 52 | 256 | 1.0 | 5.0 | 0.00 | 0.36 | 0.00 | 94 | 1011.2 |
| 20260510063521 | 52 | 217 | 1.0 | 10.0 | 0.00 | 0.36 | 0.00 | 94 | 1011.1 |
| 20260510063037 | 52 | 226 | 4.0 | 10.0 | 0.00 | 0.36 | 0.00 | 94 | 1011.3 |
| 20260510062519 | 52 | 265 | 2.0 | 9.0 | 0.00 | 0.36 | 0.00 | 94 | 1011.3 |
| 20260510062018 | 52 | 222 | 2.0 | 9.0 | 0.00 | 0.36 | 0.00 | 94 | 1011.3 |
| 20260510061546 | 52 | 208 | 1.0 | 5.0 | 0.00 | 0.36 | 0.00 | 94 | 1011.2 |
| 20260510061018 | 52 | 198 | 1.0 | 4.0 | 0.00 | 0.36 | 0.00 | 94 | 1011.2 |
| 20260510060517 | 52 | 204 | 0.0 | 4.0 | 0.00 | 0.36 | 0.00 | 94 | 1011.3 |
| 20260510060036 | 52 | 283 | 0.0 | 2.0 | 0.00 | 0.36 | 0.00 | 94 | 1011.1 |
| 20260510055518 | 52 | 191 | 0.0 | 1.0 | 0.00 | 0.36 | 0.00 | 94 | 1011.3 |
| 20260510055018 | 52 | 0 | 0.0 | 1.0 | 0.00 | 0.36 | 0.00 | 94 | 1011.2 |
| 20260510054532 | 52 | 0 | 0.0 | 0.0 | 0.00 | 0.36 | 0.00 | 94 | 1011.3 |
| 20260510054019 | 52 | 0 | 0.0 | 1.0 | 0.00 | 0.36 | 0.00 | 94 | 1011.3 |
| 20260510053524 | 52 | 0 | 0.0 | 1.0 | 0.00 | 0.36 | 0.00 | 94 | 1011.1 |
| 20260510053033 | 51 | 238 | 0.0 | 0.0 | 0.00 | 0.36 | 0.00 | 94 | 1011.2 |
| 20260510052522 | 51 | 0 | 0.0 | 0.0 | 0.00 | 0.36 | 0.00 | 93 | 1011.4 |
| 20260510052017 | 51 | 0 | 0.0 | 0.0 | 0.00 | 0.36 | 0.00 | 93 | 1011.3 |
| 20260510051540 | 51 | 0 | 0.0 | 1.0 | 0.00 | 0.36 | 0.00 | 93 | 1011.4 |
| 20260510051018 | 51 | 0 | 0.0 | 2.0 | 0.00 | 0.36 | 0.00 | 93 | 1011.4 |
| 20260510050518 | 51 | 0 | 0.0 | 2.0 | 0.00 | 0.36 | 0.00 | 93 | 1011.5 |
| 20260510050038 | 51 | 0 | 0.0 | 1.0 | 0.00 | 0.36 | 0.00 | 93 | 1011.4 |
| 20260510045518 | 51 | 0 | 0.0 | 0.0 | 0.00 | 0.36 | 0.00 | 93 | 1011.4 |
| 20260510045018 | 51 | 0 | 0.0 | 1.0 | 0.00 | 0.36 | 0.00 | 93 | 1011.3 |
| 20260510044537 | 51 | 0 | 0.0 | 1.0 | 0.00 | 0.36 | 0.00 | 93 | 1011.3 |
| 20260510044018 | 51 | 0 | 0.0 | 0.0 | 0.00 | 0.36 | 0.00 | 93 | 1011.4 |
| 20260510043518 | 51 | 0 | 0.0 | 0.0 | 0.00 | 0.36 | 0.00 | 93 | 1011.3 |
| 20260510043035 | 51 | 0 | 0.0 | 1.0 | 0.00 | 0.36 | 0.00 | 93 | 1011.4 |
| 20260510042518 | 51 | 0 | 0.0 | 2.0 | 0.00 | 0.36 | 0.00 | 93 | 1011.3 |
| 20260510042020 | 51 | 131 | 0.0 | 3.0 | 0.00 | 0.36 | 0.00 | 93 | 1011.4 |
| 20260510041532 | 51 | 115 | 0.0 | 4.0 | 0.00 | 0.36 | 0.00 | 93 | 1011.3 |
| 20260510041020 | 51 | 0 | 1.0 | 4.0 | 0.00 | 0.36 | 0.00 | 93 | 1011.4 |
| 20260510040518 | 51 | 105 | 1.0 | 2.0 | 0.00 | 0.36 | 0.00 | 93 | 1011.4 |
| 20260510040039 | 51 | 113 | 0.0 | 3.0 | 0.00 | 0.36 | 0.00 | 93 | 1011.5 |
| 20260510035517 | 51 | 189 | 0.0 | 3.0 | 0.00 | 0.36 | 0.36 | 93 | 1011.7 |
| 20260510035017 | 51 | 0 | 0.0 | 3.0 | 0.00 | 0.36 | 0.36 | 93 | 1011.5 |
| 20260510034540 | 51 | 103 | 0.0 | 3.0 | 0.00 | 0.36 | 0.36 | 93 | 1011.5 |
| 20260510034021 | 51 | 120 | 0.0 | 2.0 | 0.01 | 0.36 | 0.36 | 93 | 1011.5 |
| 20260510033518 | 51 | 0 | 0.0 | 1.0 | 0.01 | 0.36 | 0.36 | 93 | 1011.6 |
| 20260510033046 | 51 | 0 | 0.0 | 1.0 | 0.01 | 0.36 | 0.36 | 93 | 1011.7 |
| 20260510032518 | 51 | 0 | 0.0 | 1.0 | 0.01 | 0.36 | 0.36 | 93 | 1011.7 |
| 20260510032020 | 51 | 0 | 0.0 | 1.0 | 0.01 | 0.36 | 0.36 | 93 | 1011.7 |
| 20260510031545 | 51 | 0 | 0.0 | 1.0 | 0.01 | 0.36 | 0.36 | 93 | 1011.9 |
| 20260510031019 | 51 | 0 | 0.0 | 1.0 | 0.01 | 0.36 | 0.36 | 93 | 1011.9 |
| 20260510030520 | 51 | 101 | 0.0 | 1.0 | 0.01 | 0.36 | 0.36 | 93 | 1011.8 |
| 20260510030036 | 51 | 0 | 0.0 | 0.0 | 0.01 | 0.36 | 0.36 | 93 | 1011.9 |
| 20260510025520 | 51 | 0 | 0.0 | 0.0 | 0.01 | 0.36 | 0.36 | 93 | 1012.1 |
| 20260510025020 | 51 | 0 | 0.0 | 1.0 | 0.01 | 0.36 | 0.36 | 92 | 1012.1 |
| 20260510024543 | 51 | 0 | 0.0 | 2.0 | 0.01 | 0.36 | 0.36 | 92 | 1012.2 |
| 20260510024019 | 51 | 101 | 0.0 | 2.0 | 0.00 | 0.35 | 0.35 | 92 | 1012.5 |
| 20260510023520 | 51 | 125 | 0.0 | 2.0 | 0.00 | 0.35 | 0.35 | 93 | 1012.6 |
| 20260510023039 | 51 | 0 | 0.0 | 2.0 | 0.00 | 0.35 | 0.35 | 92 | 1012.6 |
| 20260510022524 | 51 | 0 | 0.0 | 2.0 | 0.00 | 0.35 | 0.35 | 92 | 1012.7 |
| 20260510022019 | 52 | 134 | 0.0 | 2.0 | 0.00 | 0.35 | 0.35 | 93 | 1012.8 |
| 20260510021537 | 52 | 141 | 0.0 | 2.0 | 0.00 | 0.35 | 0.35 | 92 | 1012.9 |
| 20260510021019 | 52 | 0 | 0.0 | 0.0 | 0.00 | 0.35 | 0.35 | 93 | 1013.1 |
| 20260510020519 | 52 | 0 | 0.0 | 0.0 | 0.00 | 0.35 | 0.35 | 92 | 1013.0 |
| 20260510020037 | 52 | 0 | 0.0 | 0.0 | 0.00 | 0.35 | 0.35 | 92 | 1013.0 |
| 20260510015519 | 52 | 0 | 0.0 | 0.0 | 0.00 | 0.35 | 0.35 | 92 | 1013.0 |
| 20260510015020 | 52 | 0 | 0.0 | 1.0 | 0.00 | 0.35 | 0.35 | 92 | 1013.0 |
| 20260510014535 | 52 | 0 | 0.0 | 1.0 | 0.00 | 0.35 | 0.35 | 92 | 1013.0 |
| 20260510014020 | 52 | 0 | 0.0 | 1.0 | 0.00 | 0.35 | 0.35 | 92 | 1013.0 |
| 20260510013520 | 52 | 197 | 0.0 | 1.0 | 0.00 | 0.35 | 0.35 | 92 | 1013.1 |
| 20260510013040 | 52 | 0 | 0.0 | 2.0 | 0.00 | 0.35 | 0.35 | 92 | 1013.0 |
| 20260510012520 | 52 | 122 | 1.0 | 3.0 | 0.00 | 0.35 | 0.35 | 92 | 1013.1 |
| 20260510012020 | 52 | 116 | 0.0 | 4.0 | 0.00 | 0.35 | 0.35 | 93 | 1013.1 |
| 20260510011550 | 52 | 158 | 1.0 | 4.0 | 0.00 | 0.35 | 0.35 | 92 | 1013.1 |
| 20260510011019 | 52 | 156 | 0.0 | 3.0 | 0.00 | 0.35 | 0.35 | 92 | 1013.2 |
| 20260510010519 | 52 | 127 | 1.0 | 3.0 | 0.00 | 0.35 | 0.35 | 92 | 1013.3 |
| 20260510010038 | 52 | 101 | 1.0 | 6.0 | 0.00 | 0.35 | 0.35 | 92 | 1013.2 |
| 20260510005520 | 52 | 150 | 2.0 | 6.0 | 0.00 | 0.35 | 0.35 | 92 | 1013.3 |
| 20260510005020 | 53 | 0 | 1.0 | 5.0 | 0.00 | 0.35 | 0.35 | 93 | 1013.2 |
| 20260510004542 | 53 | 136 | 2.0 | 5.0 | 0.00 | 0.35 | 0.35 | 93 | 1013.1 |
| 20260510004019 | 53 | 184 | 1.0 | 5.0 | 0.00 | 0.35 | 0.35 | 93 | 1013.1 |
| 20260510003519 | 53 | 171 | 1.0 | 5.0 | 0.01 | 0.35 | 0.35 | 93 | 1013.2 |
| 20260510003059 | 53 | 0 | 0.0 | 5.0 | 0.01 | 0.35 | 0.35 | 93 | 1013.1 |
| 20260510002524 | 53 | 211 | 1.0 | 5.0 | 0.01 | 0.35 | 0.35 | 93 | 1013.2 |
| 20260510002020 | 53 | 248 | 0.0 | 7.0 | 0.01 | 0.35 | 0.35 | 93 | 1013.0 |
| 20260510001540 | 53 | 224 | 1.0 | 7.0 | 0.01 | 0.35 | 0.35 | 93 | 1013.1 |
| 20260510001019 | 53 | 166 | 2.0 | 4.0 | 0.01 | 0.35 | 0.35 | 93 | 1013.1 |
| 20260510000520 | 53 | 146 | 1.0 | 4.0 | 0.01 | 0.35 | 0.35 | 93 | 1013.0 |
| 20260510000040 | 54 | 229 | 1.0 | 4.0 | 0.01 | 0.35 | 0.35 | 93 | 1013.1 |
| 20260509235521 | 54 | 203 | 0.0 | 3.0 | 0.01 | 0.35 | 0.35 | 93 | 1013.2 |
| 20260509235018 | 54 | 188 | 1.0 | 3.0 | 0.02 | 0.35 | 0.35 | 93 | 1013.1 |
| 20260509234556 | 54 | 219 | 0.0 | 2.0 | 0.02 | 0.35 | 0.35 | 93 | 1013.1 |
| 20260509234018 | 54 | 226 | 1.0 | 2.0 | 0.02 | 0.35 | 0.35 | 93 | 1013.1 |
| 20260509233517 | 54 | 0 | 0.0 | 2.0 | 0.02 | 0.34 | 0.34 | 93 | 1013.1 |
| 20260509233041 | 54 | 206 | 0.0 | 4.0 | 0.04 | 0.34 | 0.34 | 93 | 1013.1 |
| 20260509232519 | 54 | 127 | 1.0 | 4.0 | 0.08 | 0.34 | 0.34 | 93 | 1013.0 |
| 20260509232018 | 54 | 219 | 1.0 | 5.0 | 0.11 | 0.34 | 0.34 | 93 | 1013.0 |
| 20260509231548 | 54 | 0 | 1.0 | 5.0 | 0.13 | 0.34 | 0.34 | 93 | 1013.0 |
| 20260509231024 | 54 | 99 | 1.0 | 3.0 | 0.15 | 0.34 | 0.34 | 93 | 1013.0 |
| 20260509230517 | 54 | 170 | 1.0 | 4.0 | 0.16 | 0.34 | 0.34 | 93 | 1013.0 |
| 20260509230038 | 54 | 115 | 0.0 | 4.0 | 0.17 | 0.34 | 0.34 | 93 | 1013.0 |
| 20260509225521 | 54 | 219 | 1.0 | 3.0 | 0.18 | 0.34 | 0.34 | 93 | 1013.0 |
| 20260509225021 | 54 | 148 | 0.0 | 6.0 | 0.19 | 0.33 | 0.33 | 93 | 1013.0 |
| 20260509224536 | 54 | 139 | 1.0 | 6.0 | 0.20 | 0.33 | 0.33 | 92 | 1012.8 |
| 20260509224018 | 54 | 198 | 2.0 | 6.0 | 0.20 | 0.32 | 0.32 | 92 | 1012.8 |
| 20260509223521 | 54 | 83 | 2.0 | 14.0 | 0.21 | 0.32 | 0.32 | 92 | 1012.9 |
| 20260509223036 | 54 | 153 | 4.0 | 14.0 | 0.19 | 0.30 | 0.30 | 92 | 1012.9 |
| 20260509222518 | 54 | 221 | 4.0 | 10.0 | 0.15 | 0.26 | 0.26 | 92 | 1013.0 |
| 20260509222018 | 54 | 206 | 2.0 | 10.0 | 0.13 | 0.23 | 0.23 | 92 | 1012.7 |
| 20260509221535 | 54 | 231 | 3.0 | 7.0 | 0.10 | 0.20 | 0.20 | 91 | 1012.7 |
| 20260509221018 | 54 | 0 | 1.0 | 5.0 | 0.09 | 0.19 | 0.19 | 91 | 1012.5 |
| 20260509220517 | 54 | 153 | 2.0 | 5.0 | 0.08 | 0.18 | 0.18 | 91 | 1012.5 |
| 20260509220038 | 54 | 155 | 1.0 | 5.0 | 0.07 | 0.17 | 0.17 | 91 | 1012.5 |
| 20260509215518 | 54 | 203 | 1.0 | 6.0 | 0.09 | 0.16 | 0.16 | 91 | 1012.4 |
| 20260509215017 | 54 | 210 | 2.0 | 8.0 | 0.09 | 0.14 | 0.14 | 90 | 1012.4 |
| 20260509214538 | 55 | 234 | 3.0 | 9.0 | 0.09 | 0.13 | 0.13 | 90 | 1012.4 |
| 20260509214018 | 55 | 113 | 2.0 | 10.0 | 0.08 | 0.12 | 0.12 | 90 | 1012.5 |
| 20260509213522 | 55 | 210 | 3.0 | 10.0 | 0.07 | 0.11 | 0.11 | 90 | 1012.6 |
| 20260509213041 | 55 | 215 | 2.0 | 10.0 | 0.07 | 0.11 | 0.11 | 90 | 1012.5 |
| 20260509212521 | 55 | 221 | 3.0 | 10.0 | 0.07 | 0.11 | 0.11 | 90 | 1012.5 |
| 20260509212020 | 55 | 164 | 3.0 | 10.0 | 0.06 | 0.10 | 0.10 | 90 | 1012.5 |
| 20260509211539 | 55 | 214 | 3.0 | 9.0 | 0.06 | 0.10 | 0.10 | 89 | 1012.4 |
| 20260509211021 | 55 | 200 | 3.0 | 9.0 | 0.06 | 0.10 | 0.10 | 89 | 1012.2 |
| 20260509210521 | 55 | 237 | 4.0 | 11.0 | 0.06 | 0.10 | 0.10 | 88 | 1012.1 |
| 20260509210036 | 56 | 214 | 5.0 | 14.0 | 0.06 | 0.10 | 0.10 | 87 | 1012.1 |
| 20260509205521 | 56 | 217 | 6.0 | 16.0 | 0.03 | 0.07 | 0.07 | 85 | 1012.2 |
| 20260509205022 | 57 | 122 | 7.0 | 16.0 | 0.00 | 0.04 | 0.04 | 81 | 1011.9 |
| 20260509204536 | 57 | 221 | 6.0 | 17.0 | 0.00 | 0.04 | 0.04 | 80 | 1011.9 |
| 20260509204018 | 58 | 212 | 6.0 | 17.0 | 0.00 | 0.04 | 0.04 | 79 | 1011.7 |
| 20260509203517 | 58 | 141 | 6.0 | 16.0 | 0.00 | 0.04 | 0.04 | 79 | 1012.2 |
| 20260509203039 | 59 | 221 | 6.0 | 16.0 | 0.00 | 0.04 | 0.04 | 80 | 1012.2 |
| 20260509202518 | 59 | 221 | 5.0 | 13.0 | 0.00 | 0.04 | 0.04 | 80 | 1012.0 |
| 20260509202019 | 59 | 237 | 4.0 | 14.0 | 0.00 | 0.04 | 0.04 | 79 | 1012.0 |
| 20260509201538 | 60 | 184 | 6.0 | 14.0 | 0.00 | 0.04 | 0.04 | 77 | 1012.1 |
| 20260509201018 | 60 | 126 | 5.0 | 12.0 | 0.00 | 0.04 | 0.04 | 75 | 1011.8 |
| 20260509200517 | 60 | 224 | 5.0 | 11.0 | 0.00 | 0.04 | 0.04 | 75 | 1012.0 |
| 20260509200037 | 60 | 200 | 4.0 | 11.0 | 0.00 | 0.04 | 0.04 | 74 | 1011.8 |
| 20260509195520 | 60 | 243 | 5.0 | 13.0 | 0.00 | 0.04 | 0.04 | 73 | 1011.8 |
| 20260509195021 | 60 | 117 | 4.0 | 14.0 | 0.00 | 0.04 | 0.04 | 72 | 1012.0 |
| 20260509194538 | 60 | 231 | 6.0 | 14.0 | 0.00 | 0.04 | 0.04 | 72 | 1011.9 |
| 20260509194017 | 60 | 234 | 4.0 | 11.0 | 0.00 | 0.04 | 0.04 | 72 | 1011.9 |
| 20260509193519 | 60 | 198 | 4.0 | 11.0 | 0.00 | 0.04 | 0.04 | 72 | 1012.0 |
| 20260509193036 | 60 | 98 | 5.0 | 13.0 | 0.00 | 0.04 | 0.04 | 71 | 1011.9 |
| 20260509192518 | 61 | 230 | 5.0 | 13.0 | 0.00 | 0.04 | 0.04 | 72 | 1012.1 |
| 20260509192021 | 61 | 148 | 4.0 | 13.0 | 0.00 | 0.04 | 0.04 | 73 | 1012.0 |
| 20260509191532 | 61 | 174 | 5.0 | 15.0 | 0.00 | 0.04 | 0.04 | 73 | 1012.2 |
| 20260509191017 | 61 | 251 | 6.0 | 15.0 | 0.00 | 0.04 | 0.04 | 73 | 1012.1 |
| 20260509190517 | 60 | 215 | 5.0 | 14.0 | 0.00 | 0.04 | 0.04 | 74 | 1012.1 |
| 20260509190041 | 60 | 186 | 4.0 | 14.0 | 0.00 | 0.04 | 0.04 | 74 | 1012.1 |
| 20260509185518 | 60 | 212 | 4.0 | 11.0 | 0.00 | 0.04 | 0.04 | 74 | 1012.1 |
| 20260509185018 | 60 | 105 | 3.0 | 8.0 | 0.00 | 0.04 | 0.04 | 74 | 1012.2 |
| 20260509184538 | 60 | 178 | 4.0 | 14.0 | 0.00 | 0.04 | 0.04 | 74 | 1012.1 |
| 20260509184017 | 60 | 181 | 5.0 | 14.0 | 0.00 | 0.04 | 0.04 | 73 | 1012.2 |
| 20260509183518 | 60 | 229 | 3.0 | 12.0 | 0.00 | 0.04 | 0.04 | 74 | 1012.4 |
| 20260509183050 | 59 | 207 | 5.0 | 12.0 | 0.00 | 0.04 | 0.04 | 74 | 1012.3 |
| 20260509182519 | 59 | 217 | 4.0 | 10.0 | 0.00 | 0.04 | 0.04 | 75 | 1012.2 |
| 20260509182018 | 59 | 181 | 4.0 | 11.0 | 0.01 | 0.04 | 0.04 | 76 | 1012.3 |
| 20260509181545 | 58 | 230 | 5.0 | 11.0 | 0.01 | 0.04 | 0.04 | 77 | 1012.2 |
| 20260509181017 | 58 | 172 | 3.0 | 10.0 | 0.01 | 0.04 | 0.04 | 78 | 1012.3 |
| 20260509180521 | 57 | 186 | 4.0 | 10.0 | 0.01 | 0.04 | 0.04 | 78 | 1012.4 |
| 20260509180037 | 57 | 162 | 3.0 | 10.0 | 0.01 | 0.04 | 0.04 | 78 | 1012.2 |
| 20260509175519 | 57 | 153 | 2.0 | 7.0 | 0.01 | 0.04 | 0.04 | 78 | 1012.2 |
| 20260509175019 | 57 | 230 | 3.0 | 8.0 | 0.01 | 0.04 | 0.04 | 78 | 1012.3 |
| 20260509174535 | 57 | 221 | 3.0 | 11.0 | 0.01 | 0.04 | 0.04 | 78 | 1012.9 |
| 20260509174020 | 57 | 191 | 3.0 | 11.0 | 0.01 | 0.04 | 0.04 | 79 | 1013.2 |
| 20260509173520 | 57 | 267 | 3.0 | 10.0 | 0.01 | 0.04 | 0.04 | 78 | 1013.1 |
| 20260509173038 | 57 | 161 | 5.0 | 10.0 | 0.01 | 0.04 | 0.04 | 77 | 1013.1 |
| 20260509172520 | 58 | 200 | 5.0 | 10.0 | 0.01 | 0.04 | 0.04 | 76 | 1013.1 |
| 20260509172020 | 58 | 111 | 3.0 | 12.0 | 0.00 | 0.03 | 0.03 | 76 | 1013.1 |
| 20260509171540 | 58 | 167 | 5.0 | 12.0 | 0.00 | 0.03 | 0.03 | 74 | 1013.1 |
| 20260509171019 | 59 | 229 | 3.0 | 10.0 | 0.00 | 0.03 | 0.03 | 74 | 1013.1 |
| 20260509170519 | 60 | 188 | 2.0 | 10.0 | 0.00 | 0.03 | 0.03 | 72 | 1012.9 |
| 20260509170038 | 60 | 221 | 4.0 | 9.0 | 0.00 | 0.03 | 0.03 | 71 | 1013.0 |
| 20260509165519 | 60 | 151 | 3.0 | 9.0 | 0.00 | 0.03 | 0.03 | 71 | 1012.8 |
| 20260509165019 | 60 | 293 | 1.0 | 11.0 | 0.00 | 0.03 | 0.03 | 71 | 1012.8 |
| 20260509164537 | 60 | 261 | 5.0 | 11.0 | 0.00 | 0.03 | 0.03 | 70 | 1012.9 |
| 20260509164018 | 60 | 197 | 2.0 | 6.0 | 0.00 | 0.03 | 0.03 | 72 | 1013.0 |
| 20260509163519 | 59 | 192 | 3.0 | 11.0 | 0.00 | 0.03 | 0.03 | 72 | 1013.0 |
| 20260509163036 | 59 | 181 | 5.0 | 11.0 | 0.00 | 0.03 | 0.03 | 71 | 1012.8 |
| 20260509162519 | 60 | 107 | 5.0 | 11.0 | 0.00 | 0.03 | 0.03 | 71 | 1012.9 |
| 20260509162022 | 60 | 218 | 5.0 | 11.0 | 0.00 | 0.03 | 0.03 | 71 | 1012.9 |
| 20260509161539 | 60 | 176 | 3.0 | 10.0 | 0.00 | 0.03 | 0.03 | 71 | 1012.9 |
| 20260509161019 | 60 | 155 | 5.0 | 12.0 | 0.00 | 0.03 | 0.03 | 72 | 1013.0 |
| 20260509160522 | 60 | 62 | 5.0 | 12.0 | 0.00 | 0.03 | 0.03 | 72 | 1013.0 |
| 20260509160037 | 60 | 101 | 4.0 | 9.0 | 0.00 | 0.03 | 0.03 | 72 | 1013.1 |
| 20260509155519 | 59 | 108 | 4.0 | 8.0 | 0.00 | 0.03 | 0.03 | 73 | 1013.2 |
| 20260509155019 | 59 | 211 | 3.0 | 8.0 | 0.00 | 0.03 | 0.03 | 73 | 1013.3 |
| 20260509154538 | 59 | 74 | 3.0 | 9.0 | 0.00 | 0.03 | 0.03 | 75 | 1013.2 |
| 20260509154019 | 58 | 82 | 5.0 | 10.0 | 0.00 | 0.03 | 0.03 | 74 | 1013.4 |
| 20260509153522 | 58 | 135 | 6.0 | 11.0 | 0.00 | 0.03 | 0.03 | 75 | 1013.3 |
| 20260509153037 | 57 | 91 | 5.0 | 11.0 | 0.00 | 0.03 | 0.03 | 76 | 1013.5 |
| 20260509152519 | 57 | 218 | 2.0 | 11.0 | 0.00 | 0.03 | 0.03 | 77 | 1013.6 |
| 20260509152020 | 57 | 218 | 6.0 | 11.0 | 0.00 | 0.03 | 0.03 | 76 | 1013.5 |
| 20260509151539 | 56 | 87 | 4.0 | 11.0 | 0.00 | 0.03 | 0.03 | 77 | 1013.5 |
| 20260509151019 | 56 | 78 | 5.0 | 11.0 | 0.00 | 0.03 | 0.03 | 77 | 1013.7 |
| 20260509150519 | 56 | 124 | 4.0 | 10.0 | 0.00 | 0.03 | 0.03 | 78 | 1013.6 |
| 20260509150037 | 55 | 131 | 3.0 | 7.0 | 0.00 | 0.03 | 0.03 | 79 | 1013.6 |
| 20260509145520 | 54 | 65 | 3.0 | 9.0 | 0.00 | 0.03 | 0.03 | 80 | 1013.5 |
| 20260509145019 | 54 | 146 | 4.0 | 9.0 | 0.00 | 0.03 | 0.03 | 81 | 1013.6 |
| 20260509144541 | 54 | 111 | 2.0 | 9.0 | 0.00 | 0.03 | 0.03 | 82 | 1013.5 |
| 20260509144019 | 54 | 120 | 4.0 | 9.0 | 0.00 | 0.03 | 0.03 | 83 | 1013.4 |
| 20260509143520 | 53 | 148 | 2.0 | 8.0 | 0.00 | 0.03 | 0.03 | 84 | 1013.8 |
| 20260509143039 | 53 | 107 | 3.0 | 7.0 | 0.00 | 0.03 | 0.03 | 85 | 1013.8 |
| 20260509142518 | 53 | 146 | 3.0 | 7.0 | 0.00 | 0.03 | 0.03 | 86 | 1013.8 |
| 20260509142019 | 52 | 150 | 3.0 | 6.0 | 0.00 | 0.03 | 0.03 | 86 | 1013.8 |
| 20260509141537 | 52 | 149 | 1.0 | 3.0 | 0.00 | 0.03 | 0.03 | 88 | 1014.1 |
| 20260509141022 | 52 | 124 | 1.0 | 2.0 | 0.00 | 0.03 | 0.03 | 89 | 1014.2 |
| 20260509140519 | 52 | 85 | 0.0 | 4.0 | 0.00 | 0.03 | 0.03 | 90 | 1014.1 |
| 20260509140038 | 51 | 71 | 1.0 | 4.0 | 0.00 | 0.03 | 0.03 | 90 | 1014.0 |
| 20260509135520 | 51 | 23 | 0.0 | 3.0 | 0.00 | 0.03 | 0.03 | 90 | 1014.1 |
| 20260509135022 | 50 | 0 | 0.0 | 3.0 | 0.00 | 0.03 | 0.03 | 91 | 1014.4 |
| 20260509134538 | 49 | 153 | 2.0 | 3.0 | 0.00 | 0.03 | 0.03 | 91 | 1014.5 |
| 20260509134019 | 49 | 0 | 0.0 | 3.0 | 0.00 | 0.03 | 0.03 | 92 | 1014.6 |
| 20260509133519 | 49 | 63 | 1.0 | 3.0 | 0.00 | 0.03 | 0.03 | 92 | 1014.7 |
| 20260509133038 | 49 | 143 | 0.0 | 2.0 | 0.00 | 0.03 | 0.03 | 93 | 1014.5 |
| 20260509132524 | 48 | 127 | 0.0 | 1.0 | 0.00 | 0.03 | 0.03 | 93 | 1014.5 |
| 20260509132019 | 47 | 0 | 0.0 | 1.0 | 0.00 | 0.03 | 0.03 | 92 | 1014.8 |
| 20260509131537 | 47 | 0 | 0.0 | 1.0 | 0.00 | 0.03 | 0.03 | 92 | 1014.8 |
| 20260509131019 | 47 | 0 | 0.0 | 1.0 | 0.00 | 0.03 | 0.03 | 93 | 1014.8 |
| 20260509130522 | 47 | 60 | 0.0 | 1.0 | 0.00 | 0.03 | 0.03 | 92 | 1014.7 |
| 20260509130037 | 47 | 0 | 0.0 | 1.0 | 0.00 | 0.03 | 0.03 | 95 | 1014.7 |
| 20260509125518 | 45 | 0 | 0.0 | 0.0 | 0.00 | 0.03 | 0.03 | 93 | 1014.8 |
| 20260509125018 | 45 | 0 | 0.0 | 1.0 | 0.00 | 0.03 | 0.03 | 92 | 1014.9 |
| 20260509124532 | 44 | 0 | 0.0 | 1.0 | 0.00 | 0.03 | 0.03 | 92 | 1015.0 |
| 20260509124022 | 44 | 0 | 0.0 | 1.0 | 0.00 | 0.03 | 0.03 | 93 | 1015.0 |
| 20260509123519 | 44 | 0 | 0.0 | 0.0 | 0.01 | 0.03 | 0.03 | 92 | 1014.8 |
| 20260509123038 | 43 | 0 | 0.0 | 0.0 | 0.01 | 0.03 | 0.03 | 92 | 1014.6 |
| 20260509122518 | 43 | 0 | 0.0 | 1.0 | 0.01 | 0.03 | 0.03 | 92 | 1014.6 |
| 20260509122019 | 43 | 0 | 0.0 | 1.0 | 0.02 | 0.03 | 0.03 | 92 | 1014.6 |
| 20260509121538 | 42 | 0 | 0.0 | 1.0 | 0.02 | 0.03 | 0.03 | 91 | 1014.7 |
| 20260509121019 | 42 | 0 | 0.0 | 1.0 | 0.03 | 0.03 | 0.03 | 91 | 1014.7 |
| 20260509120519 | 42 | 18 | 0.0 | 1.0 | 0.03 | 0.03 | 0.03 | 91 | 1014.7 |
| 20260509120037 | 42 | 18 | 0.0 | 1.0 | 0.03 | 0.03 | 0.03 | 91 | 1014.9 |
| 20260509115518 | 42 | 0 | 0.0 | 2.0 | 0.03 | 0.03 | 0.03 | 91 | 1014.9 |
| 20260509115020 | 42 | 18 | 0.0 | 2.0 | 0.03 | 0.03 | 0.03 | 90 | 1015.0 |
| 20260509114538 | 42 | 99 | 0.0 | 1.0 | 0.03 | 0.03 | 0.03 | 90 | 1015.0 |
| 20260509114020 | 42 | 0 | 0.0 | 1.0 | 0.03 | 0.03 | 0.03 | 90 | 1015.3 |
| 20260509113519 | 42 | 99 | 0.0 | 1.0 | 0.02 | 0.02 | 0.02 | 90 | 1015.4 |
| 20260509113039 | 42 | 131 | 0.0 | 1.0 | 0.02 | 0.02 | 0.02 | 89 | 1015.5 |
| 20260509112519 | 42 | 0 | 0.0 | 0.0 | 0.01 | 0.01 | 0.01 | 89 | 1015.7 |
| 20260509112019 | 42 | 0 | 0.0 | 0.0 | 0.01 | 0.01 | 0.01 | 89 | 1015.6 |
| 20260509111537 | 41 | 0 | 0.0 | 0.0 | 0.01 | 0.01 | 0.01 | 88 | 1015.5 |
| 20260509111020 | 41 | 0 | 0.0 | 0.0 | 0.00 | 0.00 | 0.00 | 88 | 1015.5 |
| 20260509110519 | 41 | 0 | 0.0 | 0.0 | 0.00 | 0.00 | 0.00 | 88 | 1015.5 |
| 20260509110037 | 41 | 0 | 0.0 | 1.0 | 0.00 | 0.00 | 0.00 | 88 | 1015.5 |
| 20260509105523 | 41 | 0 | 0.0 | 1.0 | 0.00 | 0.00 | 0.00 | 89 | 1015.5 |
| 20260509105022 | 41 | 0 | 0.0 | 1.0 | 0.00 | 0.00 | 0.00 | 88 | 1015.4 |
| 20260509104541 | 41 | 0 | 0.0 | 1.0 | 0.00 | 0.00 | 0.00 | 88 | 1015.3 |
| 20260509104020 | 40 | 0 | 0.0 | 1.0 | 0.00 | 0.00 | 0.00 | 88 | 1015.2 |
| 20260509103519 | 40 | 0 | 0.0 | 1.0 | 0.00 | 0.00 | 0.00 | 88 | 1015.2 |
| 20260509103034 | 41 | 148 | 0.0 | 1.0 | 0.00 | 0.00 | 0.00 | 89 | 1015.0 |
| 20260509102519 | 41 | 0 | 0.0 | 1.0 | 0.00 | 0.00 | 0.00 | 90 | 1014.8 |
| 20260509102019 | 40 | 0 | 0.0 | 1.0 | 0.00 | 0.00 | 0.00 | 89 | 1014.6 |
| 20260509101549 | 40 | 0 | 0.0 | 0.0 | 0.00 | 0.00 | 0.00 | 91 | 1014.5 |
| 20260509101024 | 39 | 204 | 0.0 | 0.0 | 0.00 | 0.00 | 0.00 | 90 | 1014.3 |
| 20260509100518 | 39 | 0 | 0.0 | 0.0 | 0.00 | 0.00 | 0.00 | 90 | 1014.2 |
| 20260509100037 | 38 | 0 | 0.0 | 0.0 | 0.00 | 0.00 | 0.00 | 90 | 1014.2 |
| 20260509095520 | 38 | 0 | 0.0 | 0.0 | 0.00 | 0.00 | 0.00 | 90 | 1014.1 |
| 20260509095019 | 38 | 0 | 0.0 | 0.0 | 0.00 | 0.00 | 0.00 | 90 | 1013.8 |
| 20260509094540 | 38 | 0 | 0.0 | 1.0 | 0.00 | 0.00 | 0.00 | 90 | 1014.0 |
| 20260509094019 | 38 | 0 | 0.0 | 1.0 | 0.00 | 0.00 | 0.00 | 91 | 1013.8 |
| 20260509093522 | 37 | 0 | 0.0 | 1.0 | 0.00 | 0.00 | 0.00 | 91 | 1013.7 |
| 20260509093051 | 37 | 0 | 0.0 | 0.0 | 0.00 | 0.00 | 0.00 | 91 | 1013.6 |
| 20260509092519 | 36 | 0 | 0.0 | 0.0 | 0.00 | 0.00 | 0.00 | 91 | 1013.7 |
| 20260509092019 | 36 | 0 | 0.0 | 0.0 | 0.00 | 0.00 | 0.00 | 90 | 1013.8 |
| 20260509091538 | 36 | 0 | 0.0 | 0.0 | 0.00 | 0.00 | 0.00 | 90 | 1013.8 |
| 20260509091019 | 35 | 0 | 0.0 | 0.0 | 0.00 | 0.00 | 0.00 | 90 | 1013.9 |
| 20260509090519 | 35 | 0 | 0.0 | 0.0 | 0.00 | 0.00 | 0.00 | 90 | 1014.1 |
| 20260509090036 | 35 | 0 | 0.0 | 0.0 | 0.00 | 0.00 | 0.00 | 89 | 1013.9 |
| 20260509085522 | 35 | 0 | 0.0 | 0.0 | 0.00 | 0.00 | 0.00 | 89 | 1013.8 |
| 20260509085019 | 35 | 0 | 0.0 | 0.0 | 0.00 | 0.00 | 0.00 | 89 | 1013.7 |
| 20260509084548 | 35 | 0 | 0.0 | 0.0 | 0.00 | 0.00 | 0.00 | 89 | 1013.7 |
| 20260509084018 | 36 | 0 | 0.0 | 1.0 | 0.00 | 0.00 | 0.00 | 89 | 1013.8 |
| 20260509083518 | 36 | 0 | 0.0 | 1.0 | 0.00 | 0.00 | 0.00 | 89 | 1013.8 |
| 20260509083038 | 35 | 0 | 0.0 | 0.0 | 0.00 | 0.00 | 0.00 | 89 | 1013.8 |
| 20260509082519 | 36 | 0 | 0.0 | 0.0 | 0.00 | 0.00 | 0.00 | 89 | 1014.0 |
| 20260509082021 | 36 | 0 | 0.0 | 0.0 | 0.00 | 0.00 | 0.00 | 89 | 1014.1 |
| 20260509081541 | 36 | 0 | 0.0 | 0.0 | 0.00 | 0.00 | 0.00 | 88 | 1014.2 |
| 20260509081020 | 36 | 0 | 0.0 | 0.0 | 0.00 | 0.00 | 0.00 | 88 | 1014.1 |
| 20260509080519 | 36 | 0 | 0.0 | 1.0 | 0.00 | 0.00 | 0.00 | 88 | 1014.2 |
| 20260509080049 | 36 | 0 | 0.0 | 1.0 | 0.00 | 0.00 | 0.00 | 88 | 1014.1 |
| 20260509075523 | 36 | 212 | 0.0 | 1.0 | 0.00 | 0.00 | 0.00 | 88 | 1014.1 |
| 20260509075023 | 36 | 0 | 0.0 | 1.0 | 0.00 | 0.00 | 0.00 | 88 | 1014.1 |
| 20260509074540 | 36 | 0 | 0.0 | 1.0 | 0.00 | 0.00 | 0.00 | 88 | 1014.1 |
| 20260509074019 | 36 | 0 | 0.0 | 0.0 | 0.00 | 0.00 | 0.00 | 88 | 1014.1 |
| 20260509073519 | 37 | 0 | 0.0 | 0.0 | 0.00 | 0.00 | 0.00 | 88 | 1014.2 |
| 20260509073038 | 37 | 0 | 0.0 | 0.0 | 0.00 | 0.00 | 0.00 | 88 | 1014.2 |
| 20260509072519 | 37 | 0 | 0.0 | 0.0 | 0.00 | 0.00 | 0.00 | 88 | 1014.0 |
| 20260509072018 | 37 | 0 | 0.0 | 0.0 | 0.00 | 0.00 | 0.00 | 88 | 1014.0 |
| 20260509071537 | 37 | 0 | 0.0 | 0.0 | 0.00 | 0.00 | 0.00 | 88 | 1014.2 |